User: anonymous   Login
Location: Newark
(52.2090°N, 4.1550°W)
Time: 18:37:07
(UTC+00:00)
Language:

Courier 1B Rocket - Orbit

View from above orbital plane
View from above orbital plane
View from above satellite
View from above satellite

Ground track
Ground track

The orbit data is extracted from the following two-line orbital elements,

1    59U 60013B   19293.63894263 +.00000086 +00000-0 +14489-5 0  9994
2    59 028.2497 015.2079 0189299 064.9533 297.0538 13.52971609913965
Epoch (UTC): 20 October 2019 15:20:04
Eccentricity: 0.0189299
inclination: 28.2497°
perigee height: 920 km
apogee height: 1202 km
right ascension of ascending node: 15.2079°
argument of perigee: 64.9533°
revolutions per day: 13.52971609
mean anomaly at epoch: 297.0538°
orbit number at epoch: 91396

The dashed part of the orbit path shows where the satellite is in the earth's shadow,  

DLR